Regional Weather Roundup
Issued by NWS

Home | Current Version | Previous Version | Graphics & Text | Print | Product List | Glossary On
Versions: 1 2 3 4 5 6 7 8 9 10 11 12 13 14 15 16 17 18 19 20 21 22 23 24 25 26 27 28 29 30 31 32 33 34 35 36 37 38 39 40 41 42 43 44 45 46 47 48 49 50
346
ASUS45 KSLC 251110
RWRUT

UTAH REGIONAL WEATHER ROUNDUP
NATIONAL WEATHER SERVICE SALT LAKE CITY UT
500 AM MDT THU AUG 25 2016

UTZ001>011-023>025-251200-

NORTHERN UTAH

CITY           SKY/WX    TMP DP  RH WIND       PRES   REMARKS
BRIGHAM CITY     N/A     54  33  44 W3        30.13R
HILL AFB       CLEAR     55  23  28 E18       30.13S
LOGAN          PTCLDY    48  33  56 CALM      30.16S
OGDEN          CLEAR     55  25  31 S6        30.11S
PROVO AIRPORT  MOCLDY    57  27  30 N3        30.12S
SALT LAKE CITY CLEAR     61  31  32 CALM      30.10S
VERNAL         CLEAR     56  35  45 N6        30.18R
WENDOVER       CLEAR     64  25  22 N7        30.12F
HEBER CITY     PTCLDY    41  30  65 CALM      30.21R
WEST JORDAN    CLEAR     56  28  33 CALM      30.13S

$$

UTZ012>022-026-027-251200-

SOUTHERN/CENTRAL UTAH

CITY           SKY/WX    TMP DP  RH WIND       PRES   REMARKS
BLANDING       MOCLDY    55  41  58 CALM      30.30R
BRYCE CANYON   CLEAR     40  36  86 W5        30.31S
CEDAR CITY     PTCLDY    54  40  59 CALM      30.14S
DELTA          PTCLDY    57  19  23 NE6       30.09S
MILFORD        PTCLDY    51  30  44 W7        30.11S
MOAB/CYNLANDS  CLEAR     61  43  51 SE5       30.10R
PRICE          LGT RAIN  57  19  22 CALM      30.18R
ST GEORGE      MOSUNNY   75  46  35 E12       29.99R

$$

REGIONAL REPORTS     COLORADO/ARIZONA

CITY           SKY/WX    TMP DP  RH WIND       PRES   REMARKS
CRAIG, CO      CLEAR     45  36  70 E3        30.26R
GRAND JUNCTION CLEAR     60  47  61 E14       30.14S
RIFLE          CLEAR     53  42  66 E5        30.20S
MONTROSE       CLOUDY    51  42  71 SE8       30.24S
CORTEZ         CLOUDY    49  46  90 SE3       30.24R
PAGE, AZ       MOCLDY    69  42  37 CALM      30.08F
GRAND CANYON   CLEAR     45  40  82 CALM      30.28R
KINGMAN        CLEAR     73  51  46 S10       30.02F
FLAGSTAFF      CLEAR     46  44  93 CALM      30.31S

$$

REGIONAL REPORTS    NEVADA/IDAHO/WYOMING

CITY           SKY/WX    TMP DP  RH WIND       PRES   REMARKS
LAS VEGAS, NV  CLEAR     84  35  17 S8        29.84S
ELY            PTCLDY    40  17  39 S9        30.21R WCI  34
ELKO           MOCLDY    52  24  33 CALM      30.15S
POCATELLO, ID  CLEAR     49  35  58 NE9       30.20S
EVANSTON, WY   CLOUDY    42  29  59 E6        30.29R
ROCK SPRINGS   NOT AVBL

$$




USA.gov is the U.S. government's official web portal to all federal, state and local government web resources and services.